{"data":{"norad_id":59695,"epoch":"2026-09-21T16:20:57.054624Z","epoch_age_seconds":69293,"freshness":"FRESH","line1":"1 59695U 24086P   26264.68121591  .00000045  00000+0  11166-4 0  9994","line2":"2 59695  43.0049  29.7525 0001489 296.7017  63.3682 15.27581471134120","mean_motion":15.27581471,"eccentricity":0.0001489,"inclination_deg":43.0049,"raan_deg":29.7525,"arg_perigee_deg":296.7017,"mean_anomaly_deg":63.3682,"bstar":1.1166e-5,"rev_number":13412,"period_min":94.266657938534,"perigee_km":482.02306138616,"apogee_km":484.06632129384,"semimajor_km":6861.18169134,"source":"CELESTRAK","updated_at":"2026-09-22T09:00:49.034669Z"}}